Location: San Antonio
(29.4240°N, 98.4930°W)
Time: 09:10:11
(UTC-05:00)

ACS3 Solar Sail - Pass Details

Date: 25 June 2024
Orbit: 992 x 1023 km, 97.4° (Epoch: 11 July)

Event Time Altitude Azimuth Distance (km) Brightness Sun altitude
Exits shadow 21:30:43 - 91° (E) 2,996 6.9 -10.7°
Reaches altitude 10° 21:32:45 10° 74° (ENE) 2,760 6.8 -11.1°
Maximum altitude 21:33:46 10° 64° (ENE) 2,730 6.9 -11.3°
Drops below altitude 10° 21:34:46 10° 55° (NE) 2,760 7.0 -11.5°
Sets 21:39:57 0° 18° (NNE) 3,710 8.1 -12.4°
